STARLINK-3236 (49750 NORAD) Tracking and Keplerian Element Data
This shows tracking and keplerian element data for the satellite.
Feedback or suggestion? Click here.
Element | Value |
Catalog | 49750 |
Name | STARLINK-3236 |
Epoch Orbit | 130 |
Epoch Day | 140.58334491 |
Epoch Year | 2022 |
RAAN | 265.0628 |
Inclination | 53.218 |
Eccentricity | 0.0002463 |
Argument of Perigee | 33.0811 |
Mean Anonmoly | 203.4391 |
Mean Motion | 15.08825527 |
Decay Rate | -2.5E-06 |
L1 | 1 49750U 21115AC 22140.58334491 -.00000250 00000+0 24422-5 0 9997 |
L2 | 2 49750 53.2180 265.0628 0002463 33.0811 203.4391 15.08825527 1305 |
Live tracking and technical data element details for STARLINK-3236 (NORAD 49750). STARLINK-3236 can be tracked NOW for your location showing map with azimuth and elevation plus other details from your city location.
Track the satellite on the map from your city or location and see movement details for azimuth, elevation, latitude, longitude, range, height, and movement on the map or in text.
IsCatalogInMostPopularTable: catalog: 49750, numindb: 22
Update: records affected: 1
GetName: 49750 STARLINK-3236
Hit Count: updated at: Mon, 23 May 2022 21:05:50 GMT